This is the latest recevied weather packets stored in our database for station/object R1CBW-13. If no packets are shown the sender has not sent any weather packets the latest 10 day(s).
| Time | Temp. | Humidity | Pressure | Rain* | Wind** | Luminosity | Snow |
|---|---|---|---|---|---|---|---|
| 1778316871 | 11.11° C | 30% | 1028.3 hPa | 0 mm | - | - | - |
| 1778316811 | 11.67° C | 30% | 1028.3 hPa | 0 mm | - | - | - |
| 1778316751 | 11.11° C | 30% | 1028.2 hPa | 0 mm | - | - | - |
| 1778316691 | 10.56° C | 31% | 1028.3 hPa | 0 mm | - | - | - |
| 1778316631 | 11.11° C | 30% | 1028.1 hPa | 0 mm | - | - | - |
| 1778316571 | 10.56° C | 30% | 1028.3 hPa | 0 mm | - | - | - |
| 1778316511 | 11.11° C | 30% | 1028.2 hPa | 0 mm | - | - | - |
| 1778316451 | 10.56° C | 30% | 1028.2 hPa | 0 mm | - | - | - |
| 1778316391 | 10.56° C | 30% | 1028.3 hPa | 0 mm | - | - | - |
| 1778316331 | 10.56° C | 30% | 1028.1 hPa | 0 mm | - | - | - |
| 1778316271 | 11.11° C | 30% | 1028.2 hPa | 0 mm | - | - | - |
| 1778316211 | 10.56° C | 31% | 1028.1 hPa | 0 mm | - | - | - |
| 1778316151 | 11.11° C | 30% | 1028.2 hPa | 0 mm | - | - | - |
| 1778316031 | 11.67° C | 29% | 1028.2 hPa | 0 mm | - | - | - |
| 1778315971 | 11.67° C | 29% | 1028.2 hPa | 0 mm | - | - | - |
| 1778315911 | 11.67° C | 29% | 1028.1 hPa | 0 mm | - | - | - |
| 1778315851 | 12.22° C | 29% | 1028.2 hPa | 0 mm | - | - | - |
| 1778315791 | 12.22° C | 29% | 1028.1 hPa | 0 mm | - | - | - |
| 1778315731 | 11.11° C | 30% | 1028.2 hPa | 0 mm | - | - | - |
| 1778315671 | 11.11° C | 30% | 1028.2 hPa | 0 mm | - | - | - |
| 1778315611 | 11.11° C | 30% | 1028.3 hPa | 0 mm | - | - | - |
| 1778315551 | 11.67° C | 30% | 1028.3 hPa | 0 mm | - | - | - |
| 1778315491 | 10.56° C | 31% | 1028.2 hPa | 0 mm | - | - | - |
| 1778315431 | 11.11° C | 30% | 1028.3 hPa | 0 mm | - | - | - |
| 1778315371 | 10° C | 31% | 1028.3 hPa | 0 mm | - | - | - |
* Rain latest hour (hover to see other rain measurements)
** Current wind speed in m/s (hover to see current wind gust speed)